Location: Clover
(42.5131°N, 114.6874°W)
Time: 12:24:44
(UTC+00:00)

Explorer 7 - Pass Details

Date: 10 December 2025
Orbit: 433 x 550 km, 50.2° (Epoch: 13 January)

Event Time Altitude Azimuth Distance (km) Brightness Sun altitude
Rises 00:48:22 0° 193° (SSW) 2,461 10.7 -7.8°
Reaches altitude 10° 00:51:17 10° 167° (SSE) 1,570 9.3 -8.3°
Maximum altitude 00:53:14 14° 133° (SE) 1,322 8.5 -8.7°
Drops below altitude 10° 00:55:11 10° 99° (E) 1,552 8.6 -9.0°
Enters shadow 00:55:24 - 96° (E) 1,605 8.7 -9.0°
